CAPE
2 0 nan 0 0 0 2 nan nan nan nan nan nan nan nan 3 0 0 2 0 0 nan nan nan nan nan 1 12 13 13 15 13 13 13 8 4 1 1 nan nan nan nan nan nan nan nan nan nan nan 0 7 34 22 22 1 nan nan nan 1 4 4 23 93 234 234 273 271 248 177 177 176 203 195 195 131 32 3 3 nan 1 1 4 4 3 3 3
nan nan nan nan nan 0 nan nan nan nan nan nan nan nan nan nan nan nan nan nan nan nan nan nan nan nan nan 6 13 13 14 14 13 13 9 6 3 3 0 nan nan nan nan nan nan nan nan nan nan nan nan 1 nan nan nan nan nan nan nan nan nan 11 83 206 206 268 273 208 147 147 179 144 49 49 1 nan nan nan 4 3 3 5 3 4 4 4
0 nan nan nan nan nan 0 nan nan nan nan nan nan nan nan nan 0 0 nan nan nan nan nan nan nan nan nan 2 16 16 13 14 14 14 12 9 4 4 1 0 0 nan nan nan nan nan nan nan nan nan nan nan nan nan nan nan nan nan nan nan nan nan 12 95 95 152 187 147 112 112 104 1 nan nan 1 2 1 1 3 4 4 6 6 6 6 6
1 nan nan nan nan nan nan nan nan nan nan nan nan nan nan nan 0 0 nan nan nan nan nan nan nan nan nan nan 9 9 14 15 15 15 14 11 7 7 3 1 1 nan nan nan nan nan nan nan nan nan nan nan nan nan nan nan nan nan nan nan nan nan nan 0 0 9 28 0 1 1 0 2 2 2 1 0 3 3 6 8 8 9 8 8 8 8
nan 0 nan nan nan nan nan nan nan nan nan nan nan nan nan nan nan nan nan nan nan nan nan nan nan nan nan nan 6 6 10 12 13 13 15 14 11 11 6 2 2 0 nan nan nan nan nan nan nan nan nan nan nan nan nan nan nan nan nan nan nan nan nan nan nan nan nan nan 0 0 4 1 nan nan nan 0 3 3 8 10 10 11 10 11 11 10
nan nan nan nan nan nan nan nan nan nan nan nan nan nan nan nan nan nan nan nan nan nan nan nan nan nan nan nan 6 6 8 9 10 10 13 13 12 12 10 5 5 2 0 nan nan nan nan nan nan nan nan nan nan nan nan nan nan nan nan nan nan nan nan nan nan nan 0 1 nan nan nan nan nan nan nan nan 3 3 7 11 11 13 14 13 13 11
nan nan nan nan nan nan nan nan nan nan nan nan nan nan nan nan nan nan nan nan nan nan nan nan nan nan nan 0 5 5 6 7 9 9 8 9 14 14 13 9 9 4 2 0 0 nan nan nan nan nan nan nan nan nan nan nan nan nan nan nan nan nan nan nan nan nan nan nan nan nan nan nan nan nan nan nan 2 2 6 12 12 14 14 14 14 11
nan nan nan nan nan nan nan nan nan nan nan nan nan nan nan nan nan nan nan nan nan nan nan nan nan nan nan nan nan nan nan nan nan nan 1 2 8 8 8 11 11 7 5 3 3 2 1 nan nan nan nan nan nan nan nan nan nan nan nan nan nan nan nan nan nan nan nan nan nan nan nan nan nan nan nan nan nan nan 2 6 6 11 14 13 13 12
nan nan nan nan nan nan nan nan nan nan nan nan nan nan nan nan nan nan nan nan nan nan nan nan nan nan nan nan nan nan 0 3 2 2 1 nan 0 0 5 8 8 9 5 4 4 4 3 0 0 nan nan nan nan nan nan nan nan nan nan nan nan nan nan nan nan nan nan nan nan nan nan nan nan nan nan nan nan nan nan nan nan 2 5 7 7 8
nan nan nan nan nan nan nan nan nan nan nan nan nan nan nan nan nan nan nan nan nan nan nan nan nan nan nan nan nan nan nan 0 8 8 10 nan 6 6 1 1 1 4 2 3 3 2 2 2 2 nan nan nan nan nan nan nan nan nan nan nan nan nan nan nan nan nan nan nan nan nan nan nan nan nan nan nan nan nan nan nan nan nan 1 3 3 6
nan nan nan nan nan nan nan nan nan nan nan nan nan nan nan nan nan nan nan nan nan nan nan nan nan nan nan nan nan nan nan nan nan nan 0 nan nan nan nan nan nan nan 1 0 0 1 1 1 1 nan nan nan nan nan nan nan nan nan nan nan nan nan nan nan nan nan nan nan nan nan nan nan nan nan nan nan nan nan nan nan nan nan 0 2 2 7
nan nan nan nan nan nan nan nan nan nan nan nan nan nan nan nan nan nan nan nan nan nan nan nan nan nan nan nan nan nan nan nan nan nan nan nan nan nan nan nan nan nan nan nan nan nan 0 nan nan nan nan nan nan nan nan nan nan nan nan nan nan nan nan nan nan nan nan nan nan nan nan nan nan nan nan nan nan nan nan nan nan nan nan 2 2 6
nan nan nan nan nan nan nan nan nan nan nan nan nan nan nan nan nan nan nan nan nan nan nan nan nan nan nan nan nan nan nan nan nan nan nan nan nan nan nan nan nan nan nan nan nan nan 0 nan nan nan nan nan nan nan nan nan nan nan nan nan nan nan nan nan nan nan nan nan nan nan nan nan nan nan nan nan nan nan nan nan nan nan nan 1 1 4
nan nan nan nan nan nan nan nan nan nan nan nan nan nan nan nan nan nan nan nan nan nan nan nan nan nan nan nan nan nan nan nan nan nan nan nan nan nan nan nan nan nan nan nan nan nan 0 nan nan nan nan nan nan nan nan nan nan nan nan nan nan nan nan nan nan nan nan nan nan nan nan nan nan nan nan nan nan nan nan nan nan nan nan 1 1 3
nan nan nan nan nan nan nan nan nan nan nan nan nan nan nan nan nan nan nan nan nan nan nan nan nan nan nan nan nan nan nan nan nan nan nan nan nan nan nan nan nan nan nan nan nan nan nan nan nan nan 0 nan nan nan nan nan nan nan nan nan nan nan nan nan nan nan nan nan nan nan nan nan nan nan nan nan nan nan nan nan nan nan nan nan nan 3
nan nan nan nan nan nan nan nan nan nan nan nan nan nan nan nan nan nan nan nan nan nan nan nan nan nan nan nan nan nan nan nan nan nan nan nan nan nan nan nan nan nan nan nan nan nan nan nan nan nan nan nan nan nan nan 0 0 nan nan nan nan nan nan nan nan nan nan nan nan nan nan nan nan nan nan nan nan nan nan nan nan nan nan nan nan 0
nan nan nan nan nan nan nan nan nan nan nan nan nan nan nan nan nan nan nan nan nan nan nan nan nan nan nan nan nan nan nan nan nan nan nan nan nan nan nan nan nan nan nan nan nan nan nan nan nan nan nan 0 nan nan nan nan nan nan nan nan nan nan nan nan nan nan nan nan nan nan nan nan nan nan nan nan nan nan nan nan nan nan nan nan nan nan
nan nan nan nan nan nan nan nan nan nan nan nan nan nan nan nan nan nan nan nan nan nan nan nan nan nan nan nan nan nan nan nan nan nan nan nan nan nan nan nan nan nan nan nan nan nan nan nan nan nan 0 1 1 1 0 0 0 0 0 nan nan nan nan nan nan nan nan nan nan nan nan nan nan nan nan nan nan nan nan nan nan nan nan nan nan nan
nan nan nan nan nan nan nan nan nan nan nan nan nan nan nan nan nan nan nan nan nan nan nan nan nan nan nan nan nan nan nan nan nan nan nan nan nan nan nan nan nan nan nan nan nan nan nan nan nan 2 4 1 2 2 2 3 3 3 2 1 1 0 0 0 0 0 0 0 0 0 nan nan nan nan nan nan nan nan nan nan nan nan 0 0 0 0
nan 0 nan nan nan nan nan nan 1 1 0 nan nan nan nan nan nan nan nan nan nan nan nan nan nan nan nan nan nan nan nan nan nan nan nan nan nan nan nan nan nan nan nan nan nan nan nan nan nan 0 2 3 3 3 3 3 3 3 2 2 2 2 2 2 2 1 2 1 1 1 1 1 0 0 0 0 nan nan nan 0 0 0 0 nan nan 1
nan nan nan nan nan nan nan 0 1 1 1 nan nan nan nan nan nan nan nan nan nan nan nan nan nan nan nan nan nan nan nan nan nan nan nan nan nan nan nan nan nan nan nan nan nan nan nan nan nan nan 5 5 4 4 4 3 3 4 3 2 2 1 1 2 2 2 2 3 2 2 2 2 1 1 1 2 1 1 1 2 2 3 5 9 9 11
nan nan nan nan nan nan 1 0 2 2 1 0 nan nan nan nan nan nan nan nan nan nan nan nan nan nan nan nan nan nan nan nan nan nan nan nan nan nan nan nan nan nan nan nan nan nan nan nan nan nan 8 10 7 7 5 5 5 4 3 3 3 2 2 2 2 3 3 3 3 3 3 3 3 3 4 4 4 4 7 8 8 10 11 12 12 11
nan nan nan nan nan nan 0 0 0 0 0 0 0 0 nan nan nan nan nan nan nan nan nan nan nan nan nan nan nan nan nan nan nan nan nan nan nan nan nan nan nan nan nan nan nan nan nan nan nan nan 2 10 6 6 7 6 6 6 4 4 4 3 3 3 3 3 4 3 3 3 4 4 4 4 4 6 7 7 8 9 9 10 9 9 9 8
1 0 nan 0 0 nan nan 0 nan nan nan nan nan nan nan nan nan nan nan nan nan nan nan nan nan nan nan nan nan nan nan nan nan nan nan nan nan nan nan nan nan nan nan nan nan nan nan nan nan nan nan 2 5 5 6 7 7 6 6 5 5 5 4 4 4 4 4 4 4 4 4 5 4 4 5 5 6 6 8 9 9 9 10 8 8 7
0 1 1 2 2 3 0 nan nan nan nan nan nan nan nan nan nan nan nan nan nan nan nan nan nan nan nan nan nan nan nan nan nan nan nan nan nan nan nan nan nan nan nan nan nan nan nan nan nan nan nan nan 2 2 3 4 4 6 6 6 6 6 5 5 5 4 4 4 3 3 4 4 3 3 3 4 4 4 6 5 5 7 6 6 6 9
9 8 5 8 8 13 11 7 4 4 0 nan nan nan nan nan nan nan nan nan nan nan nan nan nan nan nan nan nan nan nan nan nan nan nan nan nan nan nan nan nan nan nan nan nan nan nan nan nan nan nan nan 4 4 2 3 3 3 6 6 6 6 6 5 5 5 5 4 3 3 3 3 2 2 2 1 1 1 1 1 1 1 nan nan nan 3
16 15 15 15 15 14 13 10 6 6 5 2 nan nan nan nan nan nan nan nan nan nan nan nan nan nan nan nan nan nan nan nan nan nan nan nan nan nan nan nan nan nan nan nan nan nan nan nan nan nan nan nan 0 0 4 3 3 2 5 4 4 6 5 6 6 6 5 5 5 5 3 3 2 2 1 0 0 0 0 0 0 0 0 nan nan 3
12 11 10 10 10 10 10 9 8 8 7 4 2 2 nan nan nan nan nan nan nan nan nan nan nan nan nan nan nan nan nan nan nan nan nan nan nan nan nan nan nan nan nan nan nan nan nan nan nan nan nan nan nan nan 1 2 2 2 2 3 3 4 4 6 6 6 6 7 6 6 6 4 2 2 0 0 0 0 nan nan nan nan nan nan nan nan
9 9 9 8 8 7 7 9 10 10 8 5 4 4 nan nan nan nan nan nan nan nan nan nan nan nan nan nan nan nan nan nan 0 0 nan nan nan nan nan nan nan nan nan nan nan nan nan nan nan nan nan nan nan nan nan 1 1 1 1 2 2 2 3 4 4 5 6 7 8 8 7 6 3 3 1 0 0 0 nan nan nan nan nan nan nan nan
5 6 7 8 8 6 4 2 7 7 9 7 6 6 1 nan nan nan nan nan nan nan nan nan nan nan nan nan nan nan nan nan 1 1 nan nan nan nan nan nan nan nan nan nan nan nan nan nan nan nan nan nan nan nan nan nan nan nan nan 1 1 1 2 2 2 4 6 7 7 7 8 7 5 5 3 1 nan nan nan nan nan nan nan nan nan nan
nan nan 0 1 1 2 1 nan 3 3 8 9 7 7 3 nan nan nan nan nan nan nan nan nan nan nan nan nan nan nan nan nan 1 1 nan nan nan nan nan nan nan nan nan nan nan nan nan nan nan nan nan nan nan nan nan nan nan nan nan nan nan 1 2 1 1 2 4 6 7 7 8 9 7 7 6 3 0 0 nan nan nan nan nan nan nan nan
nan nan nan nan nan nan nan nan nan nan nan nan nan nan 2 1 nan nan nan nan nan nan nan nan nan nan nan nan nan nan nan nan 6 6 nan nan nan nan nan nan nan nan nan nan nan nan nan nan nan nan nan nan nan nan nan nan nan nan nan nan nan nan 1 1 1 1 1 3 2 2 4 5 8 8 9 9 7 7 1 1 1 nan nan nan nan nan
nan nan nan nan nan nan nan nan nan nan nan nan nan nan nan nan 1 1 nan nan nan nan nan nan nan nan nan nan nan nan nan nan 7 7 nan nan 0 0 nan nan nan nan nan nan nan nan nan nan nan nan nan nan nan nan nan nan nan nan nan nan nan nan nan nan nan nan 0 0 0 0 2 2 7 7 8 9 8 8 8 3 3 0 nan nan nan nan
nan nan nan nan nan nan nan nan nan nan nan nan nan nan nan nan nan nan nan nan nan nan nan nan nan nan nan nan nan nan nan nan 7 7 nan nan nan nan nan nan nan 0 nan nan nan nan nan nan nan nan nan nan nan nan nan nan nan nan nan nan nan nan nan nan nan nan nan nan nan nan nan nan 3 3 5 7 7 7 10 6 6 3 1 nan nan nan
nan nan nan nan nan nan nan nan nan nan nan nan nan nan nan nan nan nan nan nan nan nan nan nan nan nan nan nan nan nan nan nan 2 2 3 nan nan nan nan nan nan nan nan nan nan nan nan nan nan nan nan nan nan nan nan nan nan nan nan nan nan nan nan nan nan nan nan nan nan nan nan nan nan nan nan 4 6 6 8 7 7 7 4 2 2 nan
nan nan nan nan nan nan nan nan nan nan nan nan nan nan nan nan nan nan nan nan nan nan nan nan nan nan nan nan nan nan nan nan 1 1 2 0 nan nan nan 0 0 nan nan nan nan nan nan nan nan nan nan nan nan nan nan nan nan nan nan nan nan nan nan nan nan nan nan nan nan nan nan nan nan nan nan 1 2 2 3 4 4 4 4 4 4 1
nan nan nan nan nan nan nan nan nan nan nan nan nan nan nan nan nan nan nan nan nan nan nan nan nan nan 0 nan nan nan nan nan nan nan nan nan nan nan nan nan nan nan 0 nan nan nan nan nan nan nan nan nan nan nan nan nan nan nan nan nan nan nan nan nan nan nan nan nan nan nan nan nan nan nan nan 1 nan nan 1 2 2 1 1 1 1 1
nan nan nan nan nan nan nan nan nan nan nan nan nan nan nan nan nan nan nan nan nan nan nan nan nan nan 1 2 nan nan nan nan nan nan nan nan nan nan nan nan nan nan nan nan nan nan nan nan nan nan nan nan nan nan nan nan nan nan nan nan nan nan nan nan nan nan nan nan 0 0 nan nan nan nan nan nan nan nan nan nan nan 1 0 nan nan 0
nan nan nan nan nan nan nan nan nan nan nan nan nan nan nan nan nan nan nan nan nan nan nan nan nan nan nan nan 1 1 nan nan nan nan nan nan nan nan nan nan nan nan nan nan nan nan nan nan nan nan nan nan nan nan nan nan nan nan nan nan nan nan nan nan nan nan nan nan 1 1 nan nan nan nan nan nan nan nan nan nan nan 0 nan nan nan nan
0 nan nan 0 0 nan nan nan nan nan nan nan nan nan nan nan nan nan nan nan nan nan nan nan nan nan nan nan nan nan nan nan nan nan nan nan nan nan nan nan nan nan nan nan nan nan nan nan nan nan nan nan nan nan nan nan nan nan nan nan nan nan nan nan nan nan nan nan nan nan nan nan nan nan nan nan nan nan nan nan nan 0 0 nan nan nan
0 nan nan nan nan nan nan nan nan nan nan nan nan nan nan nan nan nan nan nan nan nan nan nan nan nan nan nan nan nan nan nan nan nan nan nan nan nan nan nan nan nan nan nan nan nan nan nan nan nan nan nan nan nan nan nan nan 2 nan nan nan nan nan nan nan nan nan nan nan nan 1 0 0 0 nan nan nan nan nan nan nan nan nan nan nan nan
1 0 nan nan nan nan nan nan nan nan nan nan nan nan nan nan nan nan nan nan nan nan nan nan nan nan nan nan nan nan nan nan nan nan nan nan nan nan nan nan nan nan nan nan nan nan nan nan nan nan nan nan nan nan nan nan nan 0 nan nan nan nan nan nan nan nan nan nan nan nan 0 nan nan nan nan nan nan nan nan nan nan 2 1 nan nan nan
1 0 nan nan nan nan nan nan nan nan nan nan nan nan nan nan nan nan nan nan nan nan nan nan nan nan nan 0 nan nan nan nan nan nan nan nan nan nan nan nan nan nan nan nan nan nan nan nan nan nan nan nan nan nan nan nan nan nan nan 0 0 nan nan nan nan nan nan nan nan nan nan nan nan nan 0 nan nan nan 0 1 1 4 4 nan nan nan
0 0 nan nan nan nan nan nan nan nan nan nan nan nan nan nan nan nan nan nan nan nan nan nan nan nan nan nan nan nan nan nan nan nan nan nan nan nan nan nan nan nan nan nan nan nan nan nan nan nan nan nan nan nan nan nan nan nan nan nan nan nan nan nan nan nan nan nan nan nan nan nan nan nan nan nan nan nan nan 0 0 0 1 nan nan nan
0 0 nan nan nan nan nan nan nan nan nan nan nan nan nan nan nan nan nan nan nan nan nan nan nan nan nan nan nan nan nan nan nan nan nan nan 0 0 nan nan nan nan nan nan nan nan nan nan nan nan nan nan nan nan nan nan nan nan 0 nan nan nan nan nan nan nan nan nan nan nan nan nan nan nan nan nan nan nan 0 1 1 1 0 nan nan nan
0 0 0 nan nan nan nan nan nan nan nan nan nan nan nan nan nan nan nan nan nan nan nan nan nan nan nan nan nan nan nan nan nan nan nan nan nan nan nan nan nan nan nan nan nan nan nan nan nan nan nan nan nan nan 0 nan nan nan nan nan nan nan nan nan nan nan nan nan nan nan nan nan nan nan 0 0 0 0 1 2 2 1 1 0 0 nan
nan nan nan nan nan nan nan nan nan nan nan nan nan nan nan nan nan nan nan nan nan nan nan nan nan nan nan nan nan nan nan nan nan nan nan nan nan nan nan nan nan nan nan nan nan nan nan nan nan nan nan nan nan nan 0 nan nan nan nan nan nan nan nan nan nan nan nan nan nan nan nan nan nan nan nan nan nan nan 0 2 2 2 1 1 1 0
0 0 nan nan nan nan nan nan nan nan nan nan nan nan nan nan nan nan nan nan nan nan nan nan nan nan nan nan nan nan nan nan nan nan nan nan nan nan nan nan nan nan nan nan nan nan nan nan nan nan nan nan nan nan 0 nan nan nan nan nan nan nan nan nan nan nan nan nan nan nan nan nan nan nan nan nan nan nan 0 1 1 3 2 1 1 2
nan nan nan nan nan nan nan nan nan nan nan nan nan nan nan nan 2 2 nan nan nan nan nan nan nan nan nan nan nan nan nan nan nan nan nan nan nan nan nan nan nan nan nan nan nan nan nan nan nan nan nan nan nan nan nan nan nan nan nan nan nan nan nan nan nan nan nan nan nan nan nan nan nan nan nan nan nan nan 0 1 1 2 3 3 3 4
nan nan nan nan nan nan nan nan nan nan nan nan nan nan nan nan nan nan nan nan nan nan nan nan nan nan nan nan nan nan nan nan nan nan nan nan nan nan nan nan nan nan nan nan nan nan nan nan nan nan 3 nan nan nan nan nan nan nan nan nan nan nan nan nan nan nan nan nan nan nan nan nan nan nan nan nan nan nan 0 1 1 3 5 4 4 6
nan nan nan nan nan nan nan nan nan nan nan nan nan nan nan nan nan nan nan nan nan nan nan nan nan nan nan nan nan nan nan nan nan nan nan nan nan nan nan nan nan nan nan nan nan nan nan nan nan nan nan 17 1 1 nan nan nan nan nan nan nan nan nan nan nan nan nan nan nan nan nan nan nan nan nan nan nan nan 0 1 1 4 4 4 4 5
CIN
-6 -8 nan -14 -14 -7 -5 nan nan nan nan nan nan nan nan -3 -8 -8 -4 -4 -4 nan nan nan nan nan -1 -0 -0 -0 -0 -0 -0 -0 -0 -0 -0 -0 nan nan nan nan nan nan nan nan nan nan nan -25 -10 -1 -2 -2 -9 nan nan nan -5 -0 -0 -0 -0 -0 -0 -1 -1 -1 -0 -0 -0 -0 -0 -0 -1 -5 -16 -16 nan -0 -0 -0 -0 -0 -0 -0
nan nan nan nan nan -7 nan nan nan nan nan nan nan nan nan nan nan nan nan nan nan nan nan nan nan nan nan -0 -0 -0 -0 -0 -0 -0 -0 -0 -0 -0 -0 nan nan nan nan nan nan nan nan nan nan nan nan -24 nan nan nan nan nan nan nan nan nan -0 -0 -1 -1 -1 -1 -0 -0 -0 -0 -1 -3 -3 -18 nan nan nan -0 -0 -0 -0 -0 -0 -0 -0
-5 nan nan nan nan nan -4 nan nan nan nan nan nan nan nan nan -5 -5 nan nan nan nan nan nan nan nan nan -1 -0 -0 -0 -0 -0 -0 -0 -0 -0 -0 -0 -0 -0 nan nan nan nan nan nan nan nan nan nan nan nan nan nan nan nan nan nan nan nan nan -7 -3 -3 -2 -1 -0 -0 -0 -2 -13 nan nan -0 -0 -0 -0 -0 -0 -0 -0 -0 -0 -0 -0
-5 nan nan nan nan nan nan nan nan nan nan nan nan nan nan nan -4 -4 nan nan nan nan nan nan nan nan nan nan -0 -0 -0 -0 -0 -0 -0 -0 -0 -0 -0 -0 -0 nan nan nan nan nan nan nan nan nan nan nan nan nan nan nan nan nan nan nan nan nan nan -17 -17 -7 -5 -28 -9 -9 -0 -0 -0 -0 -0 -0 -0 -0 -0 -0 -0 -0 -0 -0 -0 -0
nan -3 nan nan nan nan nan nan nan nan nan nan nan nan nan nan nan nan nan nan nan nan nan nan nan nan nan nan -0 -0 -0 -0 -0 -0 -0 -0 -0 -0 -0 -0 -0 -0 nan nan nan nan nan nan nan nan nan nan nan nan nan nan nan nan nan nan nan nan nan nan nan nan nan nan -0 -0 -0 -0 nan nan nan -1 -0 -0 -0 -0 -0 -0 -0 -0 -0 -0
nan nan nan nan nan nan nan nan nan nan nan nan nan nan nan nan nan nan nan nan nan nan nan nan nan nan nan nan -0 -0 -0 -0 -0 -0 -0 -0 -0 -0 -0 -0 -0 -0 -0 nan nan nan nan nan nan nan nan nan nan nan nan nan nan nan nan nan nan nan nan nan nan nan -0 -0 nan nan nan nan nan nan nan nan -0 -0 -0 -0 -0 -0 -0 -0 -0 -0
nan nan nan nan nan nan nan nan nan nan nan nan nan nan nan nan nan nan nan nan nan nan nan nan nan nan nan -2 -0 -0 -0 -0 -0 -0 -0 -0 -0 -0 -0 -0 -0 -0 -0 -0 -0 nan nan nan nan nan nan nan nan nan nan nan nan nan nan nan nan nan nan nan nan nan nan nan nan nan nan nan nan nan nan nan -1 -1 -0 -0 -0 -0 -0 -0 -0 -0
nan nan nan nan nan nan nan nan nan nan nan nan nan nan nan nan nan nan nan nan nan nan nan nan nan nan nan nan nan nan nan nan nan nan -0 -0 -0 -0 -0 -0 -0 -0 -0 -0 -0 -0 -0 nan nan nan nan nan nan nan nan nan nan nan nan nan nan nan nan nan nan nan nan nan nan nan nan nan nan nan nan nan nan nan -2 -0 -0 -0 -0 -0 -0 -0
nan nan nan nan nan nan nan nan nan nan nan nan nan nan nan nan nan nan nan nan nan nan nan nan nan nan nan nan nan nan -3 -1 -1 -1 -1 nan -1 -1 -0 -0 -0 -0 -0 -0 -0 -0 -0 -0 -0 nan nan nan nan nan nan nan nan nan nan nan nan nan nan nan nan nan nan nan nan nan nan nan nan nan nan nan nan nan nan nan nan -1 -0 -0 -0 -0
nan nan nan nan nan nan nan nan nan nan nan nan nan nan nan nan nan nan nan nan nan nan nan nan nan nan nan nan nan nan nan -2 -0 -0 -0 nan -0 -0 -1 -1 -1 -0 -0 -0 -0 -0 -0 -0 -0 nan nan nan nan nan nan nan nan nan nan nan nan nan nan nan nan nan nan nan nan nan nan nan nan nan nan nan nan nan nan nan nan nan -1 -0 -0 -0
nan nan nan nan nan nan nan nan nan nan nan nan nan nan nan nan nan nan nan nan nan nan nan nan nan nan nan nan nan nan nan nan nan nan -1 nan nan nan nan nan nan nan -0 -1 -1 -0 -0 -0 -0 nan nan nan nan nan nan nan nan nan nan nan nan nan nan nan nan nan nan nan nan nan nan nan nan nan nan nan nan nan nan nan nan nan -1 -0 -0 -0
nan nan nan nan nan nan nan nan nan nan nan nan nan nan nan nan nan nan nan nan nan nan nan nan nan nan nan nan nan nan nan nan nan nan nan nan nan nan nan nan nan nan nan nan nan nan -1 nan nan nan nan nan nan nan nan nan nan nan nan nan nan nan nan nan nan nan nan nan nan nan nan nan nan nan nan nan nan nan nan nan nan nan nan -1 -1 -0
nan nan nan nan nan nan nan nan nan nan nan nan nan nan nan nan nan nan nan nan nan nan nan nan nan nan nan nan nan nan nan nan nan nan nan nan nan nan nan nan nan nan nan nan nan nan -1 nan nan nan nan nan nan nan nan nan nan nan nan nan nan nan nan nan nan nan nan nan nan nan nan nan nan nan nan nan nan nan nan nan nan nan nan -2 -2 -1
nan nan nan nan nan nan nan nan nan nan nan nan nan nan nan nan nan nan nan nan nan nan nan nan nan nan nan nan nan nan nan nan nan nan nan nan nan nan nan nan nan nan nan nan nan nan -1 nan nan nan nan nan nan nan nan nan nan nan nan nan nan nan nan nan nan nan nan nan nan nan nan nan nan nan nan nan nan nan nan nan nan nan nan -2 -2 -1
nan nan nan nan nan nan nan nan nan nan nan nan nan nan nan nan nan nan nan nan nan nan nan nan nan nan nan nan nan nan nan nan nan nan nan nan nan nan nan nan nan nan nan nan nan nan nan nan nan nan -1 nan nan nan nan nan nan nan nan nan nan nan nan nan nan nan nan nan nan nan nan nan nan nan nan nan nan nan nan nan nan nan nan nan nan -1
nan nan nan nan nan nan nan nan nan nan nan nan nan nan nan nan nan nan nan nan nan nan nan nan nan nan nan nan nan nan nan nan nan nan nan nan nan nan nan nan nan nan nan nan nan nan nan nan nan nan nan nan nan nan nan -1 -1 nan nan nan nan nan nan nan nan nan nan nan nan nan nan nan nan nan nan nan nan nan nan nan nan nan nan nan nan -2
nan nan nan nan nan nan nan nan nan nan nan nan nan nan nan nan nan nan nan nan nan nan nan nan nan nan nan nan nan nan nan nan nan nan nan nan nan nan nan nan nan nan nan nan nan nan nan nan nan nan nan -1 nan nan nan nan nan nan nan nan nan nan nan nan nan nan nan nan nan nan nan nan nan nan nan nan nan nan nan nan nan nan nan nan nan nan
nan nan nan nan nan nan nan nan nan nan nan nan nan nan nan nan nan nan nan nan nan nan nan nan nan nan nan nan nan nan nan nan nan nan nan nan nan nan nan nan nan nan nan nan nan nan nan nan nan nan -0 -0 -1 -1 -1 -1 -1 -0 -1 nan nan nan nan nan nan nan nan nan nan nan nan nan nan nan nan nan nan nan nan nan nan nan nan nan nan nan
nan nan nan nan nan nan nan nan nan nan nan nan nan nan nan nan nan nan nan nan nan nan nan nan nan nan nan nan nan nan nan nan nan nan nan nan nan nan nan nan nan nan nan nan nan nan nan nan nan -0 -0 -0 -0 -0 -0 -0 -0 -0 -0 -0 -0 -1 -1 -1 -1 -1 -0 -0 -0 -0 nan nan nan nan nan nan nan nan nan nan nan nan -1 -1 -1 -1
nan -2 nan nan nan nan nan nan -0 -0 -0 nan nan nan nan nan nan nan nan nan nan nan nan nan nan nan nan nan nan nan nan nan nan nan nan nan nan nan nan nan nan nan nan nan nan nan nan nan nan -2 -1 -0 -0 -0 -0 -0 -0 -0 -0 -0 -0 -0 -0 -0 -0 -0 -0 -0 -0 -0 -0 -0 -0 -0 -0 -0 nan nan nan -1 -1 -1 -1 nan nan -1
nan nan nan nan nan nan nan -0 -0 -0 -0 nan nan nan nan nan nan nan nan nan nan nan nan nan nan nan nan nan nan nan nan nan nan nan nan nan nan nan nan nan nan nan nan nan nan nan nan nan nan nan -0 -0 -0 -0 -0 -0 -0 -0 -0 -0 -0 -0 -0 -0 -0 -0 -0 -0 -0 -0 -0 -0 -0 -0 -0 -0 -0 -0 -0 -0 -0 -0 -0 -0 -0 -0
nan nan nan nan nan nan -0 -0 -0 -0 -0 -0 nan nan nan nan nan nan nan nan nan nan nan nan nan nan nan nan nan nan nan nan nan nan nan nan nan nan nan nan nan nan nan nan nan nan nan nan nan nan -0 -0 -0 -0 -0 -0 -0 -0 -0 -0 -0 -0 -0 -0 -0 -0 -0 -0 -0 -0 -0 -0 -0 -0 -0 -0 -0 -0 -0 -0 -0 -0 -0 -0 -0 -0
nan nan nan nan nan nan -0 -0 -0 -0 -0 -0 -0 -0 nan nan nan nan nan nan nan nan nan nan nan nan nan nan nan nan nan nan nan nan nan nan nan nan nan nan nan nan nan nan nan nan nan nan nan nan -0 -0 -0 -0 -0 -0 -0 -0 -0 -0 -0 -0 -0 -0 -0 -0 -0 -0 -0 -0 -0 -0 -0 -0 -0 -0 -0 -0 -0 -0 -0 -0 -0 -0 -0 -0
-3 -4 nan -8 -8 nan nan -1 nan nan nan nan nan nan nan nan nan nan nan nan nan nan nan nan nan nan nan nan nan nan nan nan nan nan nan nan nan nan nan nan nan nan nan nan nan nan nan nan nan nan nan -0 -0 -0 -0 -0 -0 -0 -0 -0 -0 -0 -0 -0 -0 -0 -0 -0 -0 -0 -0 -0 -0 -0 -0 -0 -0 -0 -0 -0 -0 -0 -0 -0 -0 -0
-4 -2 -2 -2 -2 -1 -1 nan nan nan nan nan nan nan nan nan nan nan nan nan nan nan nan nan nan nan nan nan nan nan nan nan nan nan nan nan nan nan nan nan nan nan nan nan nan nan nan nan nan nan nan nan -0 -0 -0 -0 -0 -0 -0 -0 -0 -0 -0 -0 -0 -0 -0 -0 -0 -0 -0 -0 -0 -0 -0 -0 -0 -0 -0 -0 -0 -0 -1 -1 -1 -0
-1 -1 -1 -1 -1 -0 -0 -0 -0 -0 -1 nan nan nan nan nan nan nan nan nan nan nan nan nan nan nan nan nan nan nan nan nan nan nan nan nan nan nan nan nan nan nan nan nan nan nan nan nan nan nan nan nan -0 -0 -0 -0 -0 -1 -0 -0 -0 -0 -0 -0 -0 -0 -0 -0 -0 -0 -0 -0 -0 -0 -0 -0 -0 -0 -0 -0 -0 -0 nan nan nan -2
-0 -0 -0 -0 -0 -0 -0 -0 -0 -0 -0 -0 nan nan nan nan nan nan nan nan nan nan nan nan nan nan nan nan nan nan nan nan nan nan nan nan nan nan nan nan nan nan nan nan nan nan nan nan nan nan nan nan -0 -0 -0 -0 -0 -0 -0 -0 -0 -0 -1 -1 -1 -0 -0 -0 -0 -0 -0 -0 -0 -0 -0 -0 -0 -0 -0 -0 -0 -0 -0 nan nan -0
-0 -0 -0 -0 -0 -0 -0 -0 -0 -0 -0 -0 -0 -0 nan nan nan nan nan nan nan nan nan nan nan nan nan nan nan nan nan nan nan nan nan nan nan nan nan nan nan nan nan nan nan nan nan nan nan nan nan nan nan nan -0 -0 -0 -0 -0 -0 -0 -0 -0 -1 -1 -1 -1 -0 -0 -0 -0 -0 -0 -0 -0 -0 -0 -0 nan nan nan nan nan nan nan nan
-0 -0 -0 -0 -0 -0 -0 -0 -0 -0 -0 -0 -0 -0 nan nan nan nan nan nan nan nan nan nan nan nan nan nan nan nan nan nan -1 -1 nan nan nan nan nan nan nan nan nan nan nan nan nan nan nan nan nan nan nan nan nan -0 -0 -0 -0 -0 -0 -0 -0 -0 -0 -1 -1 -0 -0 -0 -0 -0 -0 -0 -0 -0 -0 -0 nan nan nan nan nan nan nan nan
-0 -0 -0 -0 -0 -0 -0 -0 -0 -0 -0 -0 -0 -0 -0 nan nan nan nan nan nan nan nan nan nan nan nan nan nan nan nan nan -0 -0 nan nan nan nan nan nan nan nan nan nan nan nan nan nan nan nan nan nan nan nan nan nan nan nan nan -0 -0 -0 -0 -0 -0 -0 -0 -1 -0 -0 -0 -0 -0 -0 -0 -0 nan nan nan nan nan nan nan nan nan nan
nan nan -2 -1 -1 -0 -1 nan -0 -0 -0 -0 -0 -0 -0 nan nan nan nan nan nan nan nan nan nan nan nan nan nan nan nan nan -1 -1 nan nan nan nan nan nan nan nan nan nan nan nan nan nan nan nan nan nan nan nan nan nan nan nan nan nan nan -0 -0 -0 -0 -0 -0 -0 -1 -1 -0 -0 -0 -0 -0 -0 -0 -0 nan nan nan nan nan nan nan nan
nan nan nan nan nan nan nan nan nan nan nan nan nan nan -0 -1 nan nan nan nan nan nan nan nan nan nan nan nan nan nan nan nan -0 -0 nan nan nan nan nan nan nan nan nan nan nan nan nan nan nan nan nan nan nan nan nan nan nan nan nan nan nan nan -0 -0 -0 -0 -0 -0 -0 -0 -0 -1 -1 -1 -0 -0 -0 -0 -0 -0 -0 nan nan nan nan nan
nan nan nan nan nan nan nan nan nan nan nan nan nan nan nan nan -1 -1 nan nan nan nan nan nan nan nan nan nan nan nan nan nan -0 -0 nan nan -0 -0 nan nan nan nan nan nan nan nan nan nan nan nan nan nan nan nan nan nan nan nan nan nan nan nan nan nan nan nan -0 -0 -0 -0 -0 -0 -1 -1 -0 -0 -0 -0 -0 -0 -0 -0 nan nan nan nan
nan nan nan nan nan nan nan nan nan nan nan nan nan nan nan nan nan nan nan nan nan nan nan nan nan nan nan nan nan nan nan nan -0 -0 nan nan nan nan nan nan nan -0 nan nan nan nan nan nan nan nan nan nan nan nan nan nan nan nan nan nan nan nan nan nan nan nan nan nan nan nan nan nan -0 -0 -0 -0 -0 -0 -0 -0 -0 -0 -0 nan nan nan
nan nan nan nan nan nan nan nan nan nan nan nan nan nan nan nan nan nan nan nan nan nan nan nan nan nan nan nan nan nan nan nan -0 -0 -0 nan nan nan nan nan nan nan nan nan nan nan nan nan nan nan nan nan nan nan nan nan nan nan nan nan nan nan nan nan nan nan nan nan nan nan nan nan nan nan nan -0 -0 -0 -0 -0 -0 -0 -0 -0 -0 nan
nan nan nan nan nan nan nan nan nan nan nan nan nan nan nan nan nan nan nan nan nan nan nan nan nan nan nan nan nan nan nan nan -0 -0 -0 -0 nan nan nan -0 -0 nan nan nan nan nan nan nan nan nan nan nan nan nan nan nan nan nan nan nan nan nan nan nan nan nan nan nan nan nan nan nan nan nan nan -0 -0 -0 -0 -0 -0 -0 -0 -0 -0 -0
nan nan nan nan nan nan nan nan nan nan nan nan nan nan nan nan nan nan nan nan nan nan nan nan nan nan -0 nan nan nan nan nan nan nan nan nan nan nan nan nan nan nan -0 nan nan nan nan nan nan nan nan nan nan nan nan nan nan nan nan nan nan nan nan nan nan nan nan nan nan nan nan nan nan nan nan -0 nan nan -0 -0 -0 -0 -0 -0 -0 -0
nan nan nan nan nan nan nan nan nan nan nan nan nan nan nan nan nan nan nan nan nan nan nan nan nan nan -0 -0 nan nan nan nan nan nan nan nan nan nan nan nan nan nan nan nan nan nan nan nan nan nan nan nan nan nan nan nan nan nan nan nan nan nan nan nan nan nan nan nan -1 -1 nan nan nan nan nan nan nan nan nan nan nan -0 -0 nan nan -1
nan nan nan nan nan nan nan nan nan nan nan nan nan nan nan nan nan nan nan nan nan nan nan nan nan nan nan nan -0 -0 nan nan nan nan nan nan nan nan nan nan nan nan nan nan nan nan nan nan nan nan nan nan nan nan nan nan nan nan nan nan nan nan nan nan nan nan nan nan -1 -1 nan nan nan nan nan nan nan nan nan nan nan -0 nan nan nan nan
-2 nan nan -3 -3 nan nan nan nan nan nan nan nan nan nan nan nan nan nan nan nan nan nan nan nan nan nan nan nan nan nan nan nan nan nan nan nan nan nan nan nan nan nan nan nan nan nan nan nan nan nan nan nan nan nan nan nan nan nan nan nan nan nan nan nan nan nan nan nan nan nan nan nan nan nan nan nan nan nan nan nan -1 -1 nan nan nan
-1 nan nan nan nan nan nan nan nan nan nan nan nan nan nan nan nan nan nan nan nan nan nan nan nan nan nan nan nan nan nan nan nan nan nan nan nan nan nan nan nan nan nan nan nan nan nan nan nan nan nan nan nan nan nan nan nan -0 nan nan nan nan nan nan nan nan nan nan nan nan -2 -3 -2 -2 nan nan nan nan nan nan nan nan nan nan nan nan
-1 -1 nan nan nan nan nan nan nan nan nan nan nan nan nan nan nan nan nan nan nan nan nan nan nan nan nan nan nan nan nan nan nan nan nan nan nan nan nan nan nan nan nan nan nan nan nan nan nan nan nan nan nan nan nan nan nan -0 nan nan nan nan nan nan nan nan nan nan nan nan -3 nan nan nan nan nan nan nan nan nan nan -1 -1 nan nan nan
-1 -2 nan nan nan nan nan nan nan nan nan nan nan nan nan nan nan nan nan nan nan nan nan nan nan nan nan -1 nan nan nan nan nan nan nan nan nan nan nan nan nan nan nan nan nan nan nan nan nan nan nan nan nan nan nan nan nan nan nan -0 -0 nan nan nan nan nan nan nan nan nan nan nan nan nan -2 nan nan nan -4 -1 -1 -0 -0 nan nan nan
-2 -3 nan nan nan nan nan nan nan nan nan nan nan nan nan nan nan nan nan nan nan nan nan nan nan nan nan nan nan nan nan nan nan nan nan nan nan nan nan nan nan nan nan nan nan nan nan nan nan nan nan nan nan nan nan nan nan nan nan nan nan nan nan nan nan nan nan nan nan nan nan nan nan nan nan nan nan nan nan -3 -3 -4 -1 nan nan nan
-4 -5 nan nan nan nan nan nan nan nan nan nan nan nan nan nan nan nan nan nan nan nan nan nan nan nan nan nan nan nan nan nan nan nan nan nan -0 -0 nan nan nan nan nan nan nan nan nan nan nan nan nan nan nan nan nan nan nan nan -0 nan nan nan nan nan nan nan nan nan nan nan nan nan nan nan nan nan nan nan -3 -2 -2 -3 -3 nan nan nan
-4 -4 -5 nan nan nan nan nan nan nan nan nan nan nan nan nan nan nan nan nan nan nan nan nan nan nan nan nan nan nan nan nan nan nan nan nan nan nan nan nan nan nan nan nan nan nan nan nan nan nan nan nan nan nan -0 nan nan nan nan nan nan nan nan nan nan nan nan nan nan nan nan nan nan nan -2 -2 -2 -2 -2 -2 -2 -2 -3 -4 -4 nan
nan nan nan nan nan nan nan nan nan nan nan nan nan nan nan nan nan nan nan nan nan nan nan nan nan nan nan nan nan nan nan nan nan nan nan nan nan nan nan nan nan nan nan nan nan nan nan nan nan nan nan nan nan nan -0 nan nan nan nan nan nan nan nan nan nan nan nan nan nan nan nan nan nan nan nan nan nan nan -3 -2 -2 -2 -4 -3 -3 -4
-4 -3 nan nan nan nan nan nan nan nan nan nan nan nan nan nan nan nan nan nan nan nan nan nan nan nan nan nan nan nan nan nan nan nan nan nan nan nan nan nan nan nan nan nan nan nan nan nan nan nan nan nan nan nan -0 nan nan nan nan nan nan nan nan nan nan nan nan nan nan nan nan nan nan nan nan nan nan nan -3 -3 -3 -3 -4 -4 -4 -4
nan nan nan nan nan nan nan nan nan nan nan nan nan nan nan nan -4 -4 nan nan nan nan nan nan nan nan nan nan nan nan nan nan nan nan nan nan nan nan nan nan nan nan nan nan nan nan nan nan nan nan nan nan nan nan nan nan nan nan nan nan nan nan nan nan nan nan nan nan nan nan nan nan nan nan nan nan nan nan -3 -3 -3 -3 -3 -4 -4 -4
nan nan nan nan nan nan nan nan nan nan nan nan nan nan nan nan nan nan nan nan nan nan nan nan nan nan nan nan nan nan nan nan nan nan nan nan nan nan nan nan nan nan nan nan nan nan nan nan nan nan -0 nan nan nan nan nan nan nan nan nan nan nan nan nan nan nan nan nan nan nan nan nan nan nan nan nan nan nan -3 -2 -2 -2 -2 -3 -3 -3
nan nan nan nan nan nan nan nan nan nan nan nan nan nan nan nan nan nan nan nan nan nan nan nan nan nan nan nan nan nan nan nan nan nan nan nan nan nan nan nan nan nan nan nan nan nan nan nan nan nan nan -0 -0 -0 nan nan nan nan nan nan nan nan nan nan nan nan nan nan nan nan nan nan nan nan nan nan nan nan -3 -2 -2 -1 -1 -2 -2 -3
Wind_Speed
3 4 4 6 6 5 5 8 9 8 7 7 7 7 8 8 8 8 10 10 10 10 9 10 11 12 14 20 24 28 30 31 32 33 34 33 32 28 23 16 10 4 4 5 5 4 4 4 5 5 4 2 0 1 2 2 3 6 8 9 10 10 10 9 10 12 15 19 22 25 28 29 28 28 28 27 28 28 29 31 32 33 33 32 32 31
3 3 4 5 5 5 5 8 9 8 8 8 8 8 8 8 8 7 8 9 9 9 9 9 11 12 13 16 21 27 29 30 31 32 34 34 34 31 28 22 15 9 5 5 5 5 4 4 4 3 3 1 1 1 2 2 4 6 8 9 9 9 9 10 12 15 19 23 26 28 29 29 28 28 28 28 29 30 31 32 33 34 33 33 31 30
4 3 4 4 5 5 5 7 8 8 8 7 7 8 9 8 7 7 7 8 8 8 8 9 10 11 12 13 19 26 28 29 30 31 33 34 35 34 32 28 23 17 10 6 5 5 5 4 3 3 2 1 1 1 2 2 4 6 7 8 8 9 9 11 14 19 23 27 29 30 30 30 30 30 29 30 31 32 33 34 34 34 34 32 31 30
3 4 4 4 4 4 5 6 7 7 7 6 7 8 8 7 6 6 6 7 8 8 8 9 9 10 10 11 16 22 27 29 30 30 32 33 35 36 36 34 30 25 18 11 6 4 5 4 3 2 2 2 2 2 2 2 2 2 3 6 8 10 12 14 17 21 25 28 30 32 32 33 32 32 31 31 32 33 34 35 35 34 33 32 31 30
4 4 4 4 4 4 4 5 5 5 5 6 6 7 7 5 5 5 6 7 8 8 8 8 9 9 9 10 14 19 26 28 29 29 31 32 34 36 37 37 36 33 28 20 13 7 4 3 3 3 3 4 4 5 5 5 6 7 8 9 12 14 16 19 21 24 27 31 33 34 34 34 33 32 30 31 32 33 34 35 35 34 33 32 30 29
4 4 4 4 3 3 3 4 4 4 4 4 5 5 5 5 4 4 6 7 7 8 8 7 8 8 9 10 14 19 23 25 27 28 29 31 33 35 37 39 39 38 35 30 23 17 10 7 5 5 6 8 9 11 13 16 19 20 21 20 20 21 23 25 27 29 31 33 34 34 34 33 32 31 30 30 31 32 34 34 34 33 32 31 30 29
3 3 3 3 3 2 2 3 4 4 4 4 4 4 4 4 4 4 5 6 6 7 7 7 7 8 9 11 14 17 19 21 23 25 27 28 30 32 36 38 40 40 39 37 33 28 22 16 13 12 14 16 18 20 24 27 30 31 32 30 29 29 29 31 32 32 32 33 33 32 32 31 30 30 29 29 30 32 33 33 33 32 31 30 29 28
3 3 3 3 3 3 2 3 3 4 4 4 4 4 4 4 4 4 5 6 6 6 7 7 8 8 9 10 12 13 14 16 17 19 21 22 25 28 32 35 38 40 40 40 38 35 31 27 23 21 22 23 25 27 30 32 35 36 36 34 33 32 32 33 33 33 32 32 32 31 31 30 30 29 29 29 29 30 31 31 31 31 30 29 28 27
3 4 4 3 3 3 3 3 3 4 4 3 4 4 4 5 5 4 5 5 6 6 6 7 8 9 9 10 10 11 12 13 14 15 17 17 19 22 26 29 33 37 40 40 40 38 37 33 30 28 27 27 28 29 32 34 36 37 37 35 33 32 32 33 33 33 32 32 31 31 30 30 29 29 29 29 29 29 29 29 29 28 28 27 27 26
4 4 4 3 3 3 3 3 3 4 4 3 3 3 3 5 5 5 5 6 6 6 6 7 8 9 9 10 10 10 11 13 15 17 19 20 20 22 23 25 27 31 36 38 39 39 38 36 34 32 30 29 28 29 31 34 37 38 38 35 33 31 32 33 33 33 33 32 31 31 31 30 30 29 29 29 28 28 27 27 26 26 26 26 25 25
4 3 3 3 3 3 3 3 3 3 4 3 3 3 3 4 5 5 6 6 6 6 6 7 7 8 9 10 10 10 10 11 13 15 18 20 22 22 23 24 25 28 32 34 36 37 38 37 36 35 33 31 29 29 30 33 36 38 37 35 32 30 30 31 32 32 32 31 31 31 31 31 30 30 29 29 28 27 26 25 25 24 24 24 23 23
3 3 3 2 3 3 3 3 3 3 3 4 4 4 5 5 5 5 5 5 6 6 6 6 6 7 8 9 9 9 9 10 10 11 12 15 16 17 17 18 21 23 25 27 29 32 34 35 35 35 33 32 31 30 30 32 34 36 36 33 30 28 28 29 30 31 31 31 31 31 31 30 30 29 28 28 27 26 25 24 23 22 22 22 21 21
2 2 2 2 3 3 3 4 4 4 4 4 5 6 6 5 5 4 4 4 5 4 4 4 5 7 8 8 8 8 8 9 9 9 11 12 13 13 12 13 14 15 17 18 19 22 27 29 31 32 32 31 31 31 30 31 33 34 33 31 29 27 28 28 29 30 30 31 31 30 30 29 29 28 27 26 25 24 23 22 22 21 20 20 19 18
2 2 2 3 3 3 3 4 4 4 5 5 5 4 4 4 4 4 4 5 5 4 3 3 5 6 7 8 8 8 8 7 8 9 11 12 12 12 11 11 12 12 13 14 15 16 20 20 21 23 28 29 30 30 30 31 32 32 32 31 29 29 29 29 30 30 30 30 30 29 28 27 26 26 25 24 23 23 22 21 20 20 19 18 17 16
2 2 3 3 3 3 3 4 4 4 4 4 4 4 4 4 4 4 5 5 5 4 4 4 5 6 6 7 8 8 8 7 8 9 11 11 11 11 11 11 11 12 12 13 13 14 17 16 15 16 20 26 28 29 29 30 31 33 32 31 31 30 30 30 30 30 29 29 28 27 26 25 24 24 23 22 22 21 21 20 19 18 17 16 15 15
2 2 3 3 3 3 3 3 3 4 4 4 4 4 4 5 5 5 4 4 4 4 4 4 5 5 5 6 7 8 9 8 8 8 10 11 11 11 10 10 11 12 12 12 12 13 13 13 13 15 17 25 29 31 31 32 32 33 32 32 31 30 30 29 29 29 28 27 26 26 25 24 23 23 22 22 21 20 20 19 18 16 15 14 13 14
2 2 2 3 3 3 3 3 3 3 3 3 4 4 4 4 4 4 4 3 4 4 4 4 4 4 4 5 7 8 9 8 7 7 9 10 10 10 10 9 10 11 12 12 12 11 11 12 12 13 16 24 29 31 31 32 32 32 32 31 30 30 29 28 28 28 27 26 26 25 24 23 23 22 22 21 20 20 19 18 17 15 14 14 14 14
2 2 2 3 3 3 3 3 3 3 3 3 4 4 4 4 3 3 4 4 4 4 5 5 4 3 3 4 6 8 9 7 5 6 8 9 9 9 9 9 10 11 11 11 11 10 10 11 12 14 17 25 29 30 31 31 31 31 30 30 29 28 28 28 27 27 26 26 25 24 24 23 23 22 21 21 20 20 19 18 17 16 16 16 16 16
2 2 2 2 2 2 2 3 3 3 4 3 3 3 4 4 4 4 4 4 4 5 5 5 4 4 3 3 4 6 8 6 4 5 7 8 8 8 9 8 9 11 11 11 10 10 9 10 13 18 24 27 29 29 30 30 30 29 29 28 28 27 27 27 26 26 26 25 24 24 23 23 22 22 21 21 20 20 19 18 18 18 17 17 16 16
3 3 3 2 2 2 3 3 4 4 4 3 3 3 3 3 4 4 4 4 4 4 4 5 5 4 3 3 4 6 7 5 4 5 7 7 7 7 8 8 9 10 11 10 9 9 9 9 11 16 23 26 27 28 28 28 28 28 27 27 27 26 26 26 25 25 25 24 24 23 22 22 21 21 20 20 20 19 19 18 18 17 17 16 15 15
3 3 3 2 2 2 2 3 4 4 5 4 3 3 3 3 3 4 4 4 4 4 4 5 5 4 3 3 4 5 6 5 4 4 5 6 6 6 7 7 8 9 10 9 8 8 8 9 9 12 19 23 26 27 27 27 27 27 26 26 26 25 25 24 24 24 23 23 22 22 21 21 20 20 19 19 19 18 18 17 17 16 16 15 14 13
3 3 3 3 3 2 3 3 4 5 5 5 4 3 2 2 3 3 3 3 4 4 5 5 4 3 3 3 4 5 6 5 4 2 3 6 7 7 6 5 6 8 9 8 8 8 8 8 9 12 19 24 26 26 26 26 26 26 25 25 25 24 24 23 23 23 22 22 21 21 20 20 19 19 18 18 18 18 17 17 16 16 15 14 13 13
4 3 3 4 3 3 3 3 3 4 4 4 3 3 2 1 1 1 1 2 3 3 4 3 3 3 3 4 4 5 6 6 4 2 3 6 6 6 5 5 5 7 8 7 7 7 8 8 9 11 16 24 26 26 25 25 25 25 24 24 24 23 23 22 22 22 21 21 20 20 19 19 18 18 18 17 17 17 17 16 15 15 14 14 13 13
4 4 4 4 4 3 3 3 3 3 3 3 3 2 2 2 1 0 0 1 1 1 1 2 3 4 5 5 6 6 7 7 6 4 4 5 5 4 4 4 6 7 7 6 6 6 7 8 8 9 11 20 24 25 25 24 24 24 24 23 23 23 22 22 21 21 21 20 20 19 19 18 18 18 18 17 17 17 16 16 15 15 14 14 13 14
4 4 4 5 5 6 6 5 5 5 4 3 3 3 3 2 2 1 1 1 1 2 1 2 4 5 5 5 6 6 7 7 6 5 3 4 4 3 4 4 5 6 6 5 5 6 6 7 8 8 9 14 19 23 24 24 23 23 23 23 22 22 22 21 21 21 20 20 19 19 19 18 18 18 18 18 17 17 17 16 15 15 14 13 13 14
7 7 8 9 11 12 12 12 11 11 9 7 5 4 3 3 2 2 3 3 3 2 2 4 5 5 4 4 5 5 5 6 6 5 3 3 3 3 3 3 4 5 5 5 5 6 7 7 7 7 8 10 14 19 22 22 22 22 23 22 22 21 21 21 20 20 19 19 19 18 18 18 18 18 18 18 17 17 17 16 16 15 14 13 12 12
13 13 14 14 14 15 15 15 15 15 15 12 10 7 5 3 3 3 4 3 3 2 2 5 5 5 4 4 4 4 4 5 5 5 3 2 2 3 2 3 3 3 4 4 5 6 7 7 7 7 7 7 9 12 18 20 21 21 22 22 21 21 21 20 20 19 19 19 18 18 18 18 17 17 17 17 17 17 16 16 15 14 13 11 10 9
14 14 14 14 14 14 15 15 15 16 16 16 15 13 8 5 4 4 4 3 3 3 3 5 5 4 4 4 3 3 3 5 5 5 3 2 2 2 2 2 2 2 2 3 4 5 7 7 6 6 6 7 7 9 13 16 17 18 19 20 21 21 20 20 20 19 19 19 18 18 18 17 17 17 16 16 16 16 15 15 14 13 11 9 7 6
13 13 13 14 14 13 13 13 14 15 16 16 15 13 9 6 5 4 3 3 3 3 4 4 4 3 3 2 2 2 4 5 5 5 3 2 2 1 2 2 2 2 1 1 2 4 6 6 6 6 6 7 7 7 8 11 12 13 14 17 18 19 20 20 20 19 19 19 18 18 18 17 17 17 16 16 15 15 14 14 12 10 8 6 5 5
9 10 10 11 11 11 10 10 11 13 15 16 15 12 9 6 5 4 3 3 2 3 4 4 3 2 2 1 2 3 4 4 5 5 4 3 2 1 2 2 2 2 1 1 2 3 4 5 5 6 6 7 7 7 7 8 8 8 9 12 14 16 18 19 19 19 19 19 19 18 18 18 17 17 16 16 15 15 14 13 11 8 5 5 5 4
6 6 6 7 7 7 7 7 8 9 11 12 12 11 8 7 5 4 4 3 3 3 4 4 3 2 2 2 2 2 2 3 5 5 4 2 1 1 2 2 2 2 2 1 1 2 2 3 4 5 6 6 6 7 7 7 7 7 6 7 9 11 15 16 16 16 17 18 18 18 18 17 17 17 16 16 15 15 14 12 10 7 5 5 4 4
5 5 5 5 5 5 5 5 5 6 7 8 8 8 8 7 6 5 4 4 4 4 4 4 4 4 3 3 3 2 1 2 4 5 3 2 1 1 1 1 1 2 2 1 2 2 2 1 2 3 4 5 5 6 7 7 7 6 6 6 7 8 12 12 13 13 13 15 16 17 17 17 17 17 17 16 16 15 14 13 10 7 5 4 4 4
5 5 4 4 4 5 5 5 5 5 6 6 6 6 7 7 7 6 5 5 5 4 4 4 5 5 5 5 4 3 1 2 4 5 4 2 1 1 1 1 1 1 2 2 2 2 3 2 0 1 3 3 4 5 6 7 7 6 6 6 6 7 9 9 9 9 10 11 12 13 14 15 15 16 16 16 16 15 15 14 12 9 6 5 4 4
5 5 5 5 5 5 5 5 5 5 6 6 6 6 6 6 6 6 6 6 5 5 5 5 4 4 4 4 4 3 2 3 5 6 4 2 1 1 1 1 1 1 1 2 3 3 3 2 1 1 2 2 3 4 5 6 6 6 5 6 5 6 6 7 6 6 7 7 7 8 9 10 11 12 13 14 15 15 15 15 14 12 10 6 5 4
5 5 5 5 5 5 5 5 5 6 6 6 6 6 5 5 5 5 6 6 5 5 5 5 5 4 4 4 4 3 3 4 6 7 5 2 1 1 1 2 2 1 1 2 2 2 2 2 1 1 1 2 2 3 4 4 4 5 5 5 5 5 5 5 5 5 5 5 6 6 6 6 7 8 9 12 13 15 16 16 15 14 13 10 8 5
5 5 5 5 5 5 5 5 5 5 6 5 5 5 5 5 5 5 5 5 5 6 6 6 5 5 4 4 4 4 3 3 5 6 5 2 1 1 1 2 2 1 2 2 2 2 3 2 2 2 2 2 2 2 3 3 4 4 5 5 6 6 5 5 5 5 4 5 5 5 5 5 6 6 7 11 13 14 15 15 15 15 14 13 12 9
5 5 4 4 4 4 5 4 4 5 5 4 4 4 4 4 5 5 5 5 5 5 6 6 6 6 7 5 4 4 2 3 5 6 6 3 1 2 2 1 1 1 2 2 2 3 3 2 2 2 3 3 2 2 2 3 4 5 5 5 5 5 6 6 5 5 4 5 5 5 5 5 6 6 7 10 11 11 13 14 14 14 14 14 13 13
5 4 4 3 3 3 3 3 4 4 4 3 4 4 4 4 4 4 4 5 5 5 5 5 6 7 9 9 7 6 4 5 6 7 7 5 3 3 3 2 2 3 2 2 2 2 3 3 3 2 2 2 2 1 1 2 3 4 4 4 4 5 5 5 5 5 5 5 6 6 6 6 5 5 6 6 6 6 7 8 9 10 11 11 12 12
4 4 3 3 3 3 3 3 3 3 2 3 3 3 3 4 4 4 4 5 5 5 6 6 6 6 8 9 9 9 8 8 8 8 8 7 5 4 4 3 3 3 2 2 2 3 3 3 3 3 2 1 1 2 2 2 2 3 3 3 4 5 5 5 5 5 5 5 5 6 6 5 5 5 5 4 4 5 5 5 6 7 7 6 7 9
4 4 3 3 3 3 2 2 2 2 2 2 2 2 2 2 3 3 4 4 5 5 5 5 6 6 7 8 9 9 9 8 8 8 7 6 6 4 4 4 4 4 3 3 3 4 4 4 3 3 3 2 1 1 2 2 3 2 3 3 3 4 5 5 5 5 4 4 4 5 4 4 4 5 5 5 5 5 5 4 5 5 6 5 4 5
4 4 3 3 3 3 3 3 2 2 2 2 2 2 2 2 2 2 2 3 4 4 4 4 4 5 6 7 8 8 8 8 8 8 7 8 7 6 5 4 4 4 4 4 5 4 4 4 4 3 3 3 3 3 3 3 4 4 4 3 2 2 4 5 5 4 4 4 4 4 5 5 5 6 5 5 5 5 5 4 4 4 5 4 4 4
5 4 3 2 2 2 2 3 3 3 3 2 2 2 2 2 1 1 2 2 3 3 3 3 3 4 6 7 7 7 8 8 8 9 9 9 9 8 6 5 4 4 4 5 5 5 5 4 4 3 3 3 3 3 3 3 4 4 4 2 1 2 3 4 5 4 4 4 4 4 5 5 5 5 5 5 5 5 5 6 6 6 5 4 4 4
4 3 3 2 2 2 3 3 3 3 3 3 3 3 2 2 1 1 2 2 2 3 3 2 3 3 5 6 6 6 6 7 8 8 9 9 9 8 7 6 5 4 4 4 5 5 5 5 5 4 2 3 3 4 3 3 3 3 3 2 2 2 2 2 3 4 4 4 4 4 4 4 3 4 4 4 4 4 5 6 7 7 6 5 4 4
4 3 3 3 3 3 3 3 3 2 2 2 3 3 2 2 2 2 2 2 2 2 2 2 2 3 5 6 5 5 5 6 7 8 8 10 10 9 8 7 7 6 5 4 4 4 4 5 5 4 3 4 4 4 4 3 3 3 3 3 3 2 2 1 2 3 3 3 3 3 3 3 3 3 4 4 4 4 4 5 5 5 6 5 4 4
4 3 3 3 3 3 3 3 2 2 2 2 3 3 3 3 3 2 2 2 2 2 2 2 2 3 4 4 4 4 3 4 5 5 6 8 10 10 8 7 7 6 6 5 4 3 3 4 4 3 3 4 5 5 5 4 4 4 4 4 4 3 2 1 2 2 3 3 3 3 3 3 2 2 4 4 4 4 5 5 5 5 5 5 5 4
3 3 3 3 3 3 3 3 2 2 3 3 3 3 3 3 3 3 3 3 3 3 3 2 2 3 4 3 3 3 3 3 3 4 4 5 6 6 7 7 6 6 6 6 5 4 4 3 3 3 3 4 5 5 5 4 4 3 3 4 4 3 3 3 3 3 3 3 3 3 3 3 2 3 4 4 4 4 5 5 5 5 5 5 5 5
3 3 3 3 3 3 3 3 3 3 3 3 3 3 3 3 3 3 3 4 4 4 3 3 4 4 4 3 3 3 3 3 3 3 3 3 4 4 4 5 5 6 5 6 6 6 6 4 3 3 3 4 4 5 4 4 4 3 2 3 3 3 3 3 3 3 2 2 3 3 3 3 3 3 3 3 3 4 4 4 5 5 5 5 4 4
4 4 4 3 3 3 3 3 3 3 3 3 3 3 3 3 3 3 3 3 3 3 4 4 4 5 5 4 3 3 4 3 3 3 3 3 3 3 3 3 3 4 4 5 6 7 6 6 5 5 4 4 4 4 4 3 3 3 2 2 2 2 3 3 3 3 3 3 3 3 3 3 2 2 2 3 3 3 3 4 4 4 4 4 4 4
3 4 4 4 4 4 3 3 3 3 3 3 3 3 3 3 4 4 3 3 3 3 3 3 4 4 5 4 4 4 4 4 3 3 3 3 2 2 2 2 2 3 3 4 4 5 5 6 7 7 6 5 4 4 3 3 3 2 2 2 2 2 2 2 3 3 3 3 3 3 3 2 2 1 2 3 3 3 3 4 4 4 4 4 4 4
3 3 4 4 4 4 4 3 3 3 3 3 3 3 3 3 3 3 3 3 3 3 3 3 4 4 5 4 4 4 4 3 3 3 3 3 2 2 2 2 2 2 3 3 3 3 3 4 5 7 9 9 7 5 3 2 2 2 2 2 2 1 2 2 2 3 3 3 3 3 3 2 2 2 2 2 3 3 3 3 4 4 4 4 4 4
3 3 3 3 3 3 3 3 3 3 3 3 3 3 3 2 2 3 3 3 3 3 3 3 4 5 5 4 4 4 4 3 3 3 3 3 3 2 2 2 2 2 3 3 3 3 2 2 3 4 7 10 10 8 4 3 2 2 2 2 2 1 1 2 2 2 3 3 3 3 3 3 3 3 2 2 2 3 3 3 3 3 4 4 4 4
Wind_Direction
360 352 347 348 348 351 1 1 359 354 349 348 347 346 345 346 348 350 353 353 351 349 348 346 345 344 345 351 355 359 1 2 4 6 8 10 12 14 16 20 28 55 108 114 109 101 95 96 98 101 103 97 38 320 315 279 242 232 231 231 226 219 206 189 173 160 149 147 146 143 141 136 132 127 125 123 121 119 117 114 112 111 110 109 109 108
357 349 347 350 353 357 2 1 359 356 351 348 347 346 345 345 346 350 352 353 353 352 350 347 347 347 347 350 356 360 2 4 6 9 11 14 16 19 22 26 31 42 74 106 116 113 103 94 92 94 97 88 15 329 316 272 243 233 229 223 216 207 195 178 163 151 143 143 141 138 133 127 120 115 113 112 111 111 111 110 109 108 107 107 107 107
355 351 352 352 357 2 4 359 357 355 351 347 345 344 342 343 346 351 353 353 352 352 352 351 350 349 349 350 356 1 3 5 8 11 14 17 20 23 26 30 33 38 48 73 104 117 118 109 101 94 90 74 26 338 318 280 255 240 228 214 199 186 173 159 148 142 139 136 132 127 121 115 109 106 106 107 108 109 110 109 108 107 106 106 105 106
3 359 358 353 356 3 6 0 355 351 347 344 343 343 343 344 348 352 354 353 353 352 352 353 353 353 351 350 355 360 4 6 9 12 15 19 23 26 30 33 35 37 39 46 64 98 122 119 112 99 77 58 37 15 353 320 291 254 200 178 166 157 151 141 135 131 129 124 119 113 109 107 105 105 106 108 109 110 109 108 107 106 105 105 106 106
13 6 358 354 355 359 3 1 355 349 342 342 344 346 347 345 347 351 355 357 357 356 354 355 356 356 354 352 356 360 4 6 9 12 16 21 25 29 32 35 37 39 39 41 45 56 83 98 100 90 72 61 55 50 48 44 52 68 87 111 122 128 130 125 120 116 113 111 108 106 105 105 106 106 107 108 109 109 108 107 106 106 106 106 106 106
19 8 359 359 356 352 352 360 357 350 343 344 346 349 348 342 346 354 1 2 1 360 358 356 357 358 357 356 358 1 4 6 9 12 15 20 25 30 34 37 39 41 42 42 43 45 50 56 66 73 75 74 74 74 72 70 70 72 76 85 95 102 107 107 106 104 103 103 103 104 104 105 106 106 107 107 106 106 106 105 106 106 106 106 106 107
20 9 4 3 356 346 346 359 360 357 351 348 348 349 349 344 350 360 7 6 5 3 1 358 358 0 1 0 0 1 3 6 8 11 14 19 25 30 35 38 40 42 43 44 45 47 48 52 59 70 79 82 83 82 81 77 75 74 74 77 83 88 94 96 97 98 99 100 101 102 103 103 104 104 104 104 103 103 103 104 104 105 105 106 106 107
23 12 11 8 359 348 347 357 1 0 356 352 350 350 351 350 354 1 9 10 10 9 6 2 2 4 5 3 2 3 5 7 8 10 12 16 22 29 34 38 40 42 44 45 46 48 49 52 58 67 77 82 84 84 83 80 78 76 75 75 78 82 87 89 92 93 95 96 97 98 99 99 100 100 100 100 99 99 100 101 102 103 104 104 104 104
32 21 15 12 5 357 350 352 355 357 356 354 354 354 354 353 353 357 9 13 14 14 12 8 6 5 5 5 5 5 8 11 12 13 13 15 20 26 32 36 39 42 43 45 46 47 48 51 55 62 70 76 80 82 82 82 80 79 77 75 76 78 82 85 87 88 90 91 92 93 93 94 94 94 94 94 94 94 95 96 97 98 100 100 100 100
36 28 19 11 7 4 359 351 348 348 352 349 352 359 3 359 356 358 9 13 13 12 17 16 12 7 4 4 5 7 8 12 15 16 17 17 20 26 30 33 37 40 42 43 44 45 47 49 51 55 61 67 72 77 79 81 81 80 78 76 76 76 79 81 83 85 86 87 87 88 88 88 88 88 89 88 89 89 89 91 92 94 95 96 97 99
34 26 21 9 3 2 4 354 343 338 343 342 348 1 18 12 5 3 10 10 8 8 16 21 19 14 8 4 3 5 8 11 13 14 16 17 20 24 28 31 34 37 39 40 41 43 44 46 48 51 54 59 64 69 74 77 79 79 79 78 77 77 78 80 82 83 84 85 85 85 85 85 85 85 85 85 85 86 87 88 90 91 94 95 98 101
34 22 17 10 4 1 1 353 344 338 344 352 359 6 13 11 6 4 10 9 5 4 9 19 23 23 19 9 3 1 6 12 13 13 14 16 18 21 25 29 32 34 36 37 38 39 41 43 45 47 50 53 56 61 67 71 75 77 79 79 78 78 79 81 83 84 84 84 83 83 83 83 83 83 83 84 85 86 87 89 91 93 95 98 101 105
34 21 17 16 12 8 2 357 355 356 2 9 12 10 4 358 355 357 5 10 5 360 359 19 28 30 26 18 9 3 4 10 14 16 20 19 17 17 21 27 29 31 33 35 35 35 37 40 43 45 48 50 53 56 60 66 71 75 77 78 78 78 78 80 81 81 81 81 81 81 82 83 84 85 86 86 87 88 90 91 93 95 98 101 104 108
29 19 21 23 20 14 7 3 4 7 9 11 10 5 352 347 349 356 5 11 5 355 351 27 39 38 31 23 15 7 4 8 14 21 26 23 18 14 17 26 29 30 32 35 34 32 32 36 40 44 47 49 52 54 57 62 67 71 74 75 75 75 75 75 76 77 78 78 79 81 82 84 85 87 88 89 90 91 91 93 94 96 99 101 105 108
28 23 29 29 24 17 8 5 7 8 6 4 1 357 350 353 357 3 13 12 3 355 357 27 44 47 41 31 19 10 3 9 18 25 30 26 18 13 15 26 30 31 32 36 34 32 30 35 39 43 47 50 53 55 57 61 64 67 69 70 70 71 71 72 73 74 76 77 79 80 82 84 85 87 88 89 89 90 91 92 93 95 97 100 103 105
28 28 35 33 28 19 8 5 6 5 359 358 359 2 4 4 4 7 17 13 6 2 9 21 32 39 38 32 24 16 7 11 20 30 35 29 19 11 12 26 32 33 31 33 33 31 30 34 38 42 48 52 55 57 58 60 62 63 65 66 68 69 70 72 73 74 76 77 79 80 81 82 83 84 85 86 86 87 88 89 90 91 93 95 97 99
32 30 35 35 30 20 6 6 5 3 356 358 3 9 13 11 8 9 17 16 17 19 19 23 27 28 20 14 13 12 8 10 17 30 41 34 21 10 9 26 35 36 32 31 29 27 29 32 35 40 47 53 56 58 59 60 61 63 64 65 67 69 70 72 73 75 76 77 78 79 80 80 80 81 81 82 82 83 83 83 84 84 85 86 88 91
38 33 32 34 29 20 8 9 7 2 357 2 6 10 14 14 15 18 23 27 32 34 30 32 32 30 21 5 355 354 359 0 9 28 44 39 25 11 9 26 36 39 36 30 24 20 23 31 36 41 48 54 57 58 60 61 62 63 65 66 68 69 71 72 74 75 77 78 78 79 79 79 79 79 79 79 79 79 79 78 78 78 79 79 81 84
44 34 33 31 24 16 15 15 10 4 1 359 1 6 13 13 18 25 29 33 39 42 44 44 40 35 35 14 347 341 350 347 2 33 51 43 28 14 9 23 35 40 39 30 22 16 16 27 38 45 49 54 56 59 60 62 63 64 66 67 68 70 72 73 75 76 77 78 79 79 79 79 79 79 79 79 79 78 78 77 76 76 77 77 80 83
52 38 29 21 14 15 22 19 13 6 359 348 350 3 17 15 23 30 34 38 42 46 51 55 49 38 30 14 354 346 347 344 4 39 56 50 35 18 11 22 34 41 40 30 19 12 13 20 34 44 49 52 55 58 60 62 63 65 66 67 68 70 72 73 75 76 77 78 79 80 80 80 81 81 81 81 81 81 80 80 79 79 79 80 82 86
57 42 25 14 13 23 29 20 12 5 358 346 348 2 18 22 28 34 34 41 45 48 51 55 49 39 30 25 7 356 351 354 6 32 57 53 40 23 11 20 33 41 41 30 19 14 15 19 27 38 45 51 54 57 60 62 63 65 66 67 68 69 71 73 74 76 77 79 80 81 82 83 83 84 85 85 86 86 86 86 86 86 87 87 89 92
55 43 23 18 24 33 36 25 16 10 3 355 354 1 7 20 30 35 31 40 48 54 57 61 59 54 50 46 27 8 2 7 8 20 56 54 40 23 7 15 32 42 42 30 19 15 18 23 28 36 43 49 53 56 59 61 63 64 65 66 67 68 69 71 72 74 76 77 79 80 82 83 84 85 86 87 88 88 89 89 90 91 92 92 93 95
48 41 27 25 30 37 39 33 25 17 10 6 0 353 339 352 20 39 33 45 56 66 72 82 85 78 65 57 41 25 17 13 6 12 64 61 44 19 360 9 32 44 43 29 19 17 23 28 28 31 38 45 49 53 57 59 61 63 64 65 66 67 68 69 70 71 72 74 75 77 78 79 80 81 82 83 83 84 86 86 87 88 89 89 90 91
43 38 31 31 34 39 43 41 36 28 18 10 358 343 330 325 314 286 319 48 55 58 71 88 78 65 54 50 43 34 23 16 9 15 60 67 55 27 358 11 35 46 42 28 20 21 29 31 27 24 27 37 43 47 52 56 59 61 63 64 65 66 66 67 68 68 69 70 71 72 73 74 74 75 75 76 76 77 78 79 81 82 84 85 87 89
46 43 40 42 44 46 49 49 46 41 33 18 2 348 341 340 343 355 18 23 20 18 24 63 63 57 47 45 42 35 23 18 17 22 51 69 63 38 7 15 37 49 47 30 23 25 33 31 26 21 22 30 36 41 46 50 54 57 60 62 63 64 65 66 67 67 68 68 69 69 70 70 70 71 71 71 71 71 71 72 72 73 75 78 82 87
56 53 51 51 51 52 52 52 50 47 44 37 24 6 354 356 7 22 28 22 14 13 40 67 67 61 49 48 43 34 18 18 22 28 42 72 70 48 15 12 31 50 57 40 29 28 36 34 28 24 24 25 30 35 40 44 49 53 56 58 60 62 64 65 66 67 68 69 69 70 70 69 69 69 69 69 69 69 68 67 66 65 65 67 72 79
60 57 55 54 52 51 51 51 51 49 47 43 36 27 15 16 30 41 34 16 2 5 54 73 73 67 55 51 44 33 15 19 23 27 32 67 73 54 10 1 13 37 57 51 43 39 43 39 31 26 26 21 22 27 34 38 42 47 51 54 56 59 61 63 65 66 68 69 70 70 70 70 70 70 70 69 69 69 68 67 65 62 60 59 62 68
59 56 54 52 50 49 49 50 51 51 50 47 42 36 29 31 44 49 33 360 352 11 57 75 79 76 66 60 50 35 24 25 23 22 24 59 68 47 344 347 356 13 38 51 50 49 49 43 34 27 24 21 20 23 27 30 35 40 44 48 51 54 56 58 61 63 66 67 69 69 70 70 70 70 70 70 70 69 68 67 65 63 60 57 53 49
58 56 54 52 50 48 47 47 49 50 51 50 47 42 35 38 47 49 22 347 357 33 60 67 71 75 78 74 60 42 35 28 19 15 22 53 61 29 325 345 1 11 16 32 39 42 45 39 32 25 21 20 20 21 21 23 26 31 35 41 45 48 50 53 56 59 61 64 66 67 68 68 69 69 70 70 69 69 68 67 66 63 59 57 54 49
57 56 54 51 50 48 45 44 45 48 50 51 50 48 42 41 44 41 13 359 21 53 67 64 61 59 69 63 50 39 31 18 11 11 23 48 51 6 332 348 1 8 9 32 41 39 36 29 25 23 18 19 20 21 20 19 19 21 24 33 38 41 44 47 50 53 55 58 60 62 64 65 66 67 67 68 68 67 67 66 65 63 59 56 54 50
58 57 55 51 49 48 47 45 45 45 46 48 48 47 44 42 39 33 18 17 31 53 68 66 59 51 47 58 58 47 22 357 358 7 27 53 61 17 342 350 351 351 355 42 74 75 50 18 11 12 16 19 21 21 21 20 19 18 17 25 31 34 37 40 44 47 49 50 53 55 58 60 63 64 65 65 65 65 65 65 65 65 61 58 55 52
61 60 59 56 54 52 51 49 47 46 45 44 43 43 42 41 37 32 25 23 27 41 59 67 65 60 53 61 67 68 28 331 346 1 30 64 84 53 6 9 348 338 340 25 88 109 105 66 358 354 9 19 22 21 20 21 20 19 18 24 27 29 30 33 38 41 42 44 45 47 50 54 58 60 62 63 63 63 63 63 64 64 63 61 58 55
64 62 60 59 58 57 55 52 50 49 48 46 43 41 39 38 36 35 32 29 28 33 45 60 67 68 66 68 70 70 47 340 349 2 27 71 96 68 22 36 9 348 344 20 56 82 99 114 92 337 359 14 22 25 22 22 21 20 20 26 27 26 24 26 31 36 38 38 38 39 42 47 51 54 58 60 61 61 62 62 62 63 65 64 61 57
66 64 61 60 60 59 57 54 52 51 50 48 45 42 39 38 37 36 36 35 35 35 38 47 55 62 67 71 70 62 37 1 357 4 25 65 101 85 26 26 27 24 20 32 43 55 71 79 68 13 357 1 17 27 28 23 20 20 23 29 30 27 20 20 25 32 36 36 35 34 33 37 42 47 52 55 57 58 59 60 60 61 61 63 63 60
70 67 61 60 60 60 59 56 55 54 53 51 48 44 42 40 39 38 38 40 41 43 44 44 46 48 52 62 63 54 29 357 356 3 20 48 102 109 65 26 26 43 65 59 62 66 70 54 49 48 36 9 7 16 26 21 19 21 26 32 33 31 24 20 21 26 34 38 38 35 30 31 34 38 45 49 52 54 55 56 57 57 58 59 59 60
74 69 61 59 60 61 60 58 57 57 56 53 50 47 46 45 44 42 41 41 44 49 52 51 50 49 49 57 61 57 32 355 355 4 16 33 93 117 85 33 24 47 89 85 88 93 96 77 55 47 53 40 17 1 1 5 15 25 30 31 32 32 28 23 21 23 31 41 42 39 34 32 32 36 41 45 47 49 51 51 52 52 54 55 55 55
77 72 63 60 60 61 62 59 59 58 59 56 53 52 51 52 51 50 48 44 45 49 54 55 54 53 51 56 59 58 39 12 8 11 14 20 54 97 90 59 30 38 96 104 109 109 107 94 68 45 44 47 37 6 340 347 7 24 29 26 28 30 28 25 23 23 29 40 45 44 39 37 36 37 39 42 44 45 46 46 46 46 48 50 51 52
81 77 69 62 59 58 60 60 60 60 62 62 60 60 59 60 60 59 59 54 51 51 55 54 53 51 48 50 49 46 39 30 24 20 16 16 26 53 78 69 46 37 70 107 121 122 111 103 90 70 45 35 29 13 343 349 3 12 10 11 23 31 31 26 24 25 28 36 42 45 43 40 39 39 38 38 38 39 42 40 38 38 39 42 46 48
86 83 75 65 58 55 56 57 58 59 64 68 71 71 70 69 68 67 67 64 61 59 58 58 57 53 47 44 41 39 36 32 29 26 22 20 22 33 55 61 54 46 54 81 98 102 101 104 109 112 112 84 24 359 354 359 356 348 338 354 17 30 30 25 24 25 26 30 37 42 43 39 39 40 39 34 35 38 41 38 34 31 29 30 36 40
92 88 79 67 58 52 54 57 60 63 70 72 72 70 67 66 66 66 67 70 69 65 62 61 61 60 55 49 43 37 33 30 29 28 28 25 24 29 42 56 60 60 58 64 70 77 83 90 97 108 118 114 88 31 5 1 357 357 5 21 29 28 22 21 20 20 21 25 32 39 41 40 40 42 39 35 35 37 39 38 33 29 26 27 28 30
99 93 85 73 62 58 60 62 61 61 63 62 54 44 37 41 48 54 58 64 64 63 61 58 60 63 61 55 48 40 34 30 29 30 31 28 27 27 33 45 54 62 66 65 64 66 74 82 85 86 89 96 89 74 52 27 20 23 34 45 40 18 8 15 17 17 18 23 29 35 41 45 44 43 40 36 34 34 34 36 34 31 27 27 30 31
104 100 93 82 71 62 57 52 49 46 44 45 41 35 25 30 36 44 47 55 57 56 51 53 59 63 65 59 51 44 37 32 30 30 32 30 30 29 29 32 36 47 63 70 68 64 63 70 75 81 90 96 89 77 58 40 32 33 39 40 14 345 353 6 8 11 18 23 26 31 38 43 44 43 42 39 36 33 33 34 34 33 30 26 26 29
106 102 95 84 74 67 62 55 47 39 34 37 36 31 20 23 39 58 64 63 62 59 54 50 56 65 69 64 57 48 40 34 31 30 32 32 32 32 30 28 26 28 42 66 73 70 63 64 65 66 68 84 88 85 75 55 43 39 41 37 38 40 38 360 351 355 9 20 25 27 30 34 41 47 49 47 43 40 38 37 35 32 29 28 26 27
109 105 97 86 76 69 63 57 49 42 39 44 43 37 22 22 35 55 66 62 54 46 36 29 44 61 68 66 62 55 49 41 36 33 34 36 37 36 34 31 28 27 30 49 65 73 71 66 62 60 64 73 78 80 75 64 54 45 37 38 52 71 82 14 340 344 358 11 18 20 19 18 27 43 56 50 46 43 41 37 32 26 24 24 26 28
113 110 102 93 86 79 74 67 59 52 48 49 47 41 29 24 33 47 59 58 46 35 24 25 45 61 64 62 60 57 55 49 43 39 38 37 38 39 39 38 36 35 36 40 46 58 73 75 73 67 64 70 74 75 73 68 62 54 44 39 45 56 63 42 14 7 8 10 8 5 360 358 14 42 57 52 48 43 40 36 32 26 22 21 23 26
113 111 105 98 91 86 82 73 65 59 54 52 48 41 31 28 32 43 54 60 55 45 28 34 54 68 69 61 54 50 53 49 45 42 40 37 35 36 40 42 43 44 47 47 46 48 57 71 81 83 75 71 69 69 70 69 66 58 43 34 35 38 38 31 24 19 14 11 3 354 344 352 20 51 63 59 53 47 44 38 32 27 22 21 22 24
115 110 104 101 96 91 86 79 74 72 67 60 53 44 36 37 43 50 56 62 64 60 47 48 59 68 71 61 51 47 54 50 42 36 34 33 37 40 44 43 44 47 54 57 56 54 53 56 67 83 89 81 75 70 67 66 65 60 45 23 22 30 38 26 15 8 8 14 6 354 347 4 29 51 64 65 61 55 49 42 34 27 22 21 20 21
119 113 109 105 101 97 92 88 85 83 82 75 64 53 45 48 56 63 64 65 68 68 62 59 65 70 71 64 56 52 56 53 44 33 24 21 24 30 36 34 35 38 44 52 57 59 59 58 62 70 82 84 84 80 73 68 64 59 45 17 14 23 35 21 9 2 6 13 10 6 9 26 39 49 57 64 64 60 53 47 38 30 22 20 20 21
113 113 112 110 109 106 102 98 94 91 91 86 78 66 56 56 63 68 70 69 70 69 65 65 69 73 73 67 59 54 53 51 44 32 20 11 8 10 15 14 15 17 21 27 35 44 51 55 56 58 62 70 74 76 74 68 64 60 50 26 13 10 13 7 4 3 7 9 8 10 21 39 43 44 51 63 66 65 59 52 43 33 24 20 19 21
104 107 110 111 112 112 110 106 101 96 94 91 87 81 72 63 60 61 67 70 72 72 71 70 72 73 73 67 61 56 52 47 41 32 20 7 2 3 6 8 13 17 14 11 13 18 25 38 44 47 50 52 53 54 57 55 54 51 45 28 11 356 349 350 354 359 5 7 6 9 19 27 26 26 40 60 66 67 63 56 47 37 26 20 18 20
102 101 105 108 110 112 112 110 107 104 102 98 95 91 86 80 73 70 70 72 73 73 72 71 72 74 74 70 64 58 53 50 45 35 19 3 358 360 4 10 23 34 35 27 22 20 23 25 24 29 37 41 40 40 44 40 40 41 36 14 358 342 335 334 340 348 359 3 8 14 25 29 27 26 31 48 58 61 60 56 49 40 29 22 18 19